Location: Coupvray
(48.8929°N, 2.7967°E)
Time: 09:56:30
(UTC+00:00)

CZ-4C R/B - Pass Details

Date: 14 July 2020
Orbit: 632 x 1370 km, 63.4° (Epoch: 06 August)

Event Time Altitude Azimuth Distance (km) Brightness Sun altitude
Rises 00:14:49 0° 312° (NW) 3,913 6.2 -19.3°
Reaches altitude 10° 00:17:45 10° 302° (WNW) 3,061 5.4 -19.3°
Maximum altitude 00:23:51 28° 247° (WSW) 2,165 4.0 -19.2°
Enters shadow 00:26:33 23° 217° (SW) 2,438 4.1 -19.1°
